This is the latest recevied weather packets stored in our database for station/object DH0BRO-3. If no packets are shown the sender has not sent any weather packets the latest 10 day(s).
| Time | Temp. | Humidity | Pressure | Rain* | Wind** | Luminosity | Snow |
|---|---|---|---|---|---|---|---|
| 1778151916 | 8.89° C | 86% | 1015.2 hPa | 0 mm | - | - | - |
| 1778150109 | 8.89° C | 84% | 1015 hPa | 0 mm | - | - | - |
| 1778148304 | 8.33° C | 85% | 1014.8 hPa | 0 mm | - | - | - |
| 1778144535 | 8.33° C | 85% | 1013.9 hPa | 0 mm | - | - | - |
| 1778143633 | 8.33° C | 86% | 1013.8 hPa | 0 mm | - | - | - |
| 1778142730 | 8.33° C | 86% | 1013.7 hPa | 0 mm | - | - | - |
| 1778140342 | 7.78° C | 87% | 1013.2 hPa | 0 mm | - | - | - |
| 1778136711 | 7.78° C | 88% | 1012.8 hPa | 0 mm | - | - | - |
| 1778135807 | 7.78° C | 88% | 1012.6 hPa | 0 mm | - | - | - |
| 1778134904 | 7.78° C | 88% | 1012.4 hPa | 0 mm | - | - | - |
| 1778124970 | 7.78° C | 87% | 1011.2 hPa | 0 mm | - | - | - |
| 1778122261 | 7.78° C | 87% | 1010.9 hPa | 0 mm | - | - | - |
| 1778114134 | 9.44° C | 86% | 1010 hPa | 0 mm | - | - | - |
| 1778113251 | 9.44° C | 87% | 1009.8 hPa | 0 mm | - | - | - |
| 1778112328 | 10° C | 87% | 1009.6 hPa | 0 mm | - | - | - |
| 1778111425 | 10° C | 87% | 1009.6 hPa | 0 mm | - | - | - |
| 1778110542 | 10.56° C | 87% | 1009.4 hPa | 0 mm | - | - | - |
| 1778106007 | 10.56° C | 86% | 1009.1 hPa | 0 mm | - | - | - |
| 1778091703 | 12.78° C | 86% | 1007.5 hPa | 0 mm | - | - | - |
| 1778087188 | 13.33° C | 87% | 1007.2 hPa | 0 mm | - | - | - |
| 1778080887 | 13.33° C | 88% | 1007.3 hPa | 0 mm | - | - | - |
| 1778076352 | 13.33° C | 88% | 1007.4 hPa | 0 mm | - | - | - |
| 1778065518 | 12.22° C | 92% | 1006.7 hPa | 0 mm | - | - | - |
| 1778063710 | 12.22° C | 93% | 1006.6 hPa | 0 mm | - | - | - |
| 1778059038 | 11.67° C | 95% | 1006 hPa | 0 mm | - | - | - |
* Rain latest hour (hover to see other rain measurements)
** Current wind speed in m/s (hover to see current wind gust speed)